EW4266 Weather Reports


time (UTC)temp
F
wind
direction
speed
knots
gust
knots
rain 1hr
in
rain 24hr
in
rain mn
in
humidity
%
barometer
mb
20260505074227 60 163 5.2 11.3 0.00 0.00 0.00 51 1004.8
20260505074130 60 158 7.0 11.3 0.00 0.00 0.00 51 1004.8
20260505074054 60 157 7.8 11.3 0.00 0.00 0.00 51 1004.8
20260505074015 60 143 7.8 12.2 0.00 0.00 0.00 51 1004.9
20260505073829 60 117 6.1 8.7 0.00 0.00 0.00 51 1004.8
20260505073745 60 152 6.1 8.7 0.00 0.00 0.00 51 1004.8
20260505073616 60 134 6.1 10.4 0.00 0.00 0.00 51 1004.8
20260505073537 60 149 5.2 10.4 0.00 0.00 0.00 51 1004.9
20260505073342 60 157 5.2 10.4 0.00 0.00 0.00 51 1004.8
20260505073304 60 197 5.2 10.4 0.00 0.00 0.00 51 1004.8
20260505073208 60 143 5.2 10.4 0.00 0.00 0.00 51 1004.8
20260505073130 60 189 6.1 10.4 0.00 0.00 0.00 51 1004.9
20260505072934 60 150 7.0 10.4 0.00 0.00 0.00 50 1004.9
20260505072837 60 143 7.0 11.3 0.00 0.00 0.00 51 1005.0
20260505072724 60 207 6.1 10.4 0.00 0.00 0.00 51 1005.0
20260505072645 60 167 5.2 10.4 0.00 0.00 0.00 51 1005.0
20260505072517 60 188 5.2 10.4 0.00 0.00 0.00 50 1005.0
20260505072434 60 138 6.1 10.4 0.00 0.00 0.00 50 1005.0
20260505072305 60 165 6.1 10.4 0.00 0.00 0.00 50 1005.0
20260505072226 60 172 6.1 10.4 0.00 0.00 0.00 51 1004.9
20260505072029 60 130 5.2 9.6 0.00 0.00 0.00 50 1005.0
20260505071951 60 189 6.1 9.6 0.00 0.00 0.00 50 1005.0
20260505071834 60 148 6.1 9.6 0.00 0.00 0.00 51 1005.0
20260505071757 60 186 6.1 9.6 0.00 0.00 0.00 51 1005.0
20260505071716 60 175 6.1 9.6 0.00 0.00 0.00 51 1005.0
20260505071545 60 163 7.0 9.6 0.00 0.00 0.00 50 1005.0
20260505071445 60 204 6.1 9.6 0.00 0.00 0.00 50 1005.0
20260505071408 59 179 6.1 11.3 0.00 0.00 0.00 50 1005.1
20260505071311 59 165 5.2 8.7 0.00 0.00 0.00 51 1005.1
20260505071234 59 232 5.2 8.7 0.00 0.00 0.00 50 1005.1
20260505071102 59 189 5.2 9.6 0.00 0.00 0.00 50 1005.1
20260505070936 59 160 4.3 9.6 0.00 0.00 0.00 50 1005.0
20260505070859 59 165 4.3 9.6 0.00 0.00 0.00 50 1005.0
20260505070803 59 201 4.3 9.6 0.00 0.00 0.00 51 1005.0
20260505070704 59 191 5.2 9.6 0.00 0.00 0.00 51 1005.0
20260505070532 59 141 3.5 9.6 0.00 0.00 0.00 50 1005.0
20260505070430 59 184 4.3 9.6 0.00 0.00 0.00 50 1005.0
20260505070239 59 155 5.2 9.6 0.00 0.00 0.00 50 1005.0
20260505070155 59 207 6.1 9.6 0.00 0.00 0.00 50 1005.0
20260505070025 59 159 5.2 9.6 0.00 0.00 0.00 50 1005.1
20260505065926 59 141 4.3 9.6 0.00 0.00 0.00 50 1005.0
20260505065730 59 133 4.3 9.6 0.00 0.00 0.00 51 1005.0
20260505065634 59 170 4.3 9.6 0.00 0.00 0.00 50 1005.0
20260505065537 59 111 5.2 9.6 0.00 0.00 0.00 50 1005.0
20260505065459 59 151 6.1 9.6 0.00 0.00 0.00 50 1005.0
20260505065330 59 146 4.3 7.8 0.00 0.00 0.00 50 1005.0
20260505065226 59 117 4.3 7.8 0.00 0.00 0.00 50 1005.1
20260505065038 59 140 4.3 7.8 0.00 0.00 0.00 50 1005.1
20260505064952 59 137 4.3 7.8 0.00 0.00 0.00 50 1005.1
20260505064800 60 159 4.3 7.8 0.00 0.00 0.00 50 1005.2
20260505064700 60 142 5.2 7.8 0.00 0.00 0.00 50 1005.2
20260505064605 60 153 4.3 7.8 0.00 0.00 0.00 50 1005.2
20260505064528 60 161 4.3 7.8 0.00 0.00 0.00 50 1005.2
20260505064357 60 147 3.5 7.8 0.00 0.00 0.00 50 1005.2
20260505064259 60 150 4.3 9.6 0.00 0.00 0.00 50 1005.2
20260505064200 60 133 5.2 9.6 0.00 0.00 0.00 50 1005.1
20260505064122 60 185 5.2 9.6 0.00 0.00 0.00 50 1005.1
20260505063930 60 159 5.2 9.6 0.00 0.00 0.00 50 1005.1
20260505063833 60 162 6.1 9.6 0.00 0.00 0.00 50 1005.1
20260505063735 60 181 5.2 9.6 0.00 0.00 0.00 50 1005.0
20260505063659 60 177 5.2 9.6 0.00 0.00 0.00 50 1005.0
20260505063619 60 163 6.1 9.6 0.00 0.00 0.00 50 1005.1
20260505063500 60 154 6.1 9.6 0.00 0.00 0.00 50 1005.0
20260505063342 60 220 5.2 8.7 0.00 0.00 0.00 50 1005.0
20260505063223 60 191 4.3 8.7 0.00 0.00 0.00 50 1005.0
20260505063145 60 168 4.3 8.7 0.00 0.00 0.00 50 1005.0
20260505063025 60 136 5.2 8.7 0.00 0.00 0.00 50 1005.0
20260505062929 60 194 5.2 8.7 0.00 0.00 0.00 50 1005.0
20260505062853 60 155 5.2 8.7 0.00 0.00 0.00 50 1005.0
20260505062816 60 159 6.1 8.7 0.00 0.00 0.00 50 1005.0
20260505062638 60 129 7.0 9.6 0.00 0.00 0.00 50 1004.9
20260505062600 60 167 7.0 10.4 0.00 0.00 0.00 50 1004.9
20260505062515 60 146 5.2 9.6 0.00 0.00 0.00 50 1004.9
20260505062324 60 156 4.3 10.4 0.00 0.00 0.00 50 1005.0
20260505062248 60 158 4.3 10.4 0.00 0.00 0.00 50 1005.0
20260505062126 60 136 4.3 10.4 0.00 0.00 0.00 50 1005.0
20260505062032 60 176 5.2 10.4 0.00 0.00 0.00 50 1005.0
20260505061953 60 129 4.3 10.4 0.00 0.00 0.00 50 1004.9
20260505061855 60 106 4.3 10.4 0.00 0.00 0.00 50 1004.9
20260505061758 60 151 6.1 10.4 0.00 0.00 0.00 50 1004.9
20260505061639 60 176 7.0 10.4 0.00 0.00 0.00 50 1004.9
20260505061543 60 173 5.2 11.3 0.00 0.00 0.00 50 1004.9
20260505061505 60 171 4.3 9.6 0.00 0.00 0.00 50 1004.9
20260505061313 60 182 5.2 9.6 0.00 0.00 0.00 50 1004.8
20260505061228 60 148 6.1 9.6 0.00 0.00 0.00 49 1004.8
20260505061100 60 163 4.3 11.3 0.00 0.00 0.00 49 1004.8
20260505061005 60 167 6.1 11.3 0.00 0.00 0.00 49 1004.8
20260505060836 60 163 6.1 11.3 0.00 0.00 0.00 49 1004.8
20260505060730 60 131 7.0 11.3 0.00 0.00 0.00 49 1004.8
20260505060540 60 186 7.0 11.3 0.00 0.00 0.00 49 1004.9
20260505060435 60 132 6.1 11.3 0.00 0.00 0.00 49 1004.8
20260505060332 60 163 6.1 11.3 0.00 0.00 0.00 49 1004.8
20260505060234 60 137 6.1 11.3 0.00 0.00 0.00 49 1004.7
20260505060137 60 198 5.2 10.4 0.00 0.00 0.00 49 1004.8
20260505060059 60 171 4.3 10.4 0.00 0.00 0.00 49 1004.8
20260505055922 60 134 6.1 10.4 0.00 0.00 0.00 49 1004.8
20260505055837 60 199 6.1 10.4 0.00 0.00 0.00 49 1004.8
20260505055645 60 118 6.1 10.4 0.00 0.00 0.00 49 1004.8
20260505055546 60 191 6.1 9.6 0.00 0.00 0.00 49 1004.8
20260505055429 60 119 5.2 8.7 0.00 0.00 0.00 49 1004.9
20260505055352 60 181 4.3 8.7 0.00 0.00 0.00 49 1004.9
20260505055315 60 184 4.3 8.7 0.00 0.00 0.00 49 1004.8
20260505055158 60 156 4.3 8.7 0.00 0.00 0.00 49 1004.8
20260505055120 60 191 4.3 9.6 0.00 0.00 0.00 49 1004.9
20260505054923 60 141 5.2 9.6 0.00 0.00 0.00 49 1004.8
20260505054831 60 169 5.2 10.4 0.00 0.00 0.00 49 1004.8
20260505054723 60 107 5.2 10.4 0.00 0.00 0.00 49 1004.8
20260505054645 60 141 6.1 10.4 0.00 0.00 0.00 49 1004.8
20260505054542 60 164 5.2 10.4 0.00 0.00 0.00 49 1004.9
20260505054423 60 163 4.3 12.2 0.00 0.00 0.00 49 1004.8
20260505054348 60 235 4.3 12.2 0.00 0.00 0.00 49 1004.8
20260505054309 60 168 4.3 12.2 0.00 0.00 0.00 49 1004.8
20260505054151 60 150 6.1 12.2 0.00 0.00 0.00 49 1004.8
20260505054114 60 155 5.2 12.2 0.00 0.00 0.00 49 1004.8
20260505053839 60 158 4.3 12.2 0.00 0.00 0.00 49 1004.8
20260505053713 60 193 4.3 12.2 0.00 0.00 0.00 49 1004.8
20260505053626 60 199 6.1 12.2 0.00 0.00 0.00 49 1004.8
20260505053527 60 102 5.2 12.2 0.00 0.00 0.00 49 1004.8
20260505053357 60 142 4.3 9.6 0.00 0.00 0.00 49 1004.8
20260505053229 60 167 5.2 9.6 0.00 0.00 0.00 49 1004.8
20260505053151 60 146 5.2 9.6 0.00 0.00 0.00 49 1004.8
20260505053053 60 186 4.3 9.6 0.00 0.00 0.00 49 1004.8
20260505052953 60 150 5.2 9.6 0.00 0.00 0.00 49 1004.8
20260505052739 60 119 5.2 13.0 0.00 0.00 0.00 49 1004.8
20260505052642 60 198 5.2 13.0 0.00 0.00 0.00 49 1004.8
20260505052524 60 147 4.3 13.0 0.00 0.00 0.00 49 1004.9
20260505052448 60 182 3.5 13.0 0.00 0.00 0.00 49 1004.9
20260505052323 60 196 3.5 13.0 0.00 0.00 0.00 49 1004.9
20260505052226 60 212 5.2 13.0 0.00 0.00 0.00 49 1004.9
20260505052148 60 182 7.0 13.0 0.00 0.00 0.00 49 1004.9
20260505052109 60 166 7.8 13.0 0.00 0.00 0.00 49 1004.8
20260505052012 60 182 7.0 13.0 0.00 0.00 0.00 49 1004.9
20260505051936 60 165 5.2 13.0 0.00 0.00 0.00 49 1004.9
20260505051807 60 196 4.3 13.0 0.00 0.00 0.00 49 1004.9
20260505051721 60 184 3.5 13.0 0.00 0.00 0.00 49 1004.9
20260505051531 60 184 4.3 13.0 0.00 0.00 0.00 49 1004.8
20260505051445 60 152 5.2 13.0 0.00 0.00 0.00 49 1004.8
20260505051316 60 167 6.1 13.0 0.00 0.00 0.00 49 1004.9
20260505051237 59 157 6.1 13.0 0.00 0.00 0.00 49 1004.9
20260505051109 59 169 4.3 13.0 0.00 0.00 0.00 49 1004.9
20260505051023 59 161 4.3 8.7 0.00 0.00 0.00 49 1004.9
20260505050834 59 214 4.3 8.7 0.00 0.00 0.00 49 1004.9
20260505050733 59 163 3.5 8.7 0.00 0.00 0.00 49 1004.9
20260505050655 59 167 3.5 8.7 0.00 0.00 0.00 49 1004.9
20260505050558 59 163 6.1 8.7 0.00 0.00 0.00 49 1004.9
20260505050437 59 167 4.3 8.7 0.00 0.00 0.00 49 1004.9
20260505050340 59 146 4.3 8.7 0.00 0.00 0.00 50 1004.9
20260505050301 59 125 5.2 8.7 0.00 0.00 0.00 49 1005.0
20260505050123 59 173 5.2 8.7 0.00 0.00 0.00 50 1004.9
20260505041732 57 159 2.6 5.2 0.00 0.00 0.00 49 1004.8
20260505041635 57 157 3.5 5.2 0.00 0.00 0.00 49 1004.9
20260505041558 57 196 3.5 5.2 0.00 0.00 0.00 49 1004.9
20260505041501 57 139 3.5 5.2 0.00 0.00 0.00 49 1004.9
20260505041424 58 155 3.5 5.2 0.00 0.00 0.00 49 1004.9
20260505041227 58 147 2.6 7.0 0.00 0.00 0.00 49 1004.9
20260505041128 58 115 3.5 7.0 0.00 0.00 0.00 49 1004.9
20260505041031 58 121 3.5 7.0 0.00 0.00 0.00 49 1004.8
20260505040958 58 153 3.5 7.0 0.00 0.00 0.00 49 1004.8
20260505040920 58 173 3.5 7.0 0.00 0.00 0.00 49 1004.8
20260505040722 58 117 2.6 7.0 0.00 0.00 0.00 49 1004.8
20260505040645 58 126 3.5 7.0 0.00 0.00 0.00 49 1004.8
20260505040527 58 115 4.3 7.0 0.00 0.00 0.00 48 1004.9
20260505040451 58 167 3.5 5.2 0.00 0.00 0.00 48 1004.9
20260505040405 58 167 3.5 5.2 0.00 0.00 0.00 48 1004.8
20260505040245 58 180 3.5 6.1 0.00 0.00 0.00 48 1004.9
20260505040146 58 188 2.6 5.2 0.00 0.00 0.00 48 1004.9
20260505040025 57 165 2.6 6.1 0.00 0.00 0.00 48 1004.8
20260505035930 57 187 2.6 6.1 0.00 0.00 0.00 48 1004.8
20260505035831 57 186 1.7 6.1 0.00 0.00 0.00 48 1004.8
20260505035754 57 136 2.6 6.1 0.00 0.00 0.00 48 1004.8
20260505035655 57 175 2.6 6.1 0.00 0.00 0.00 47 1004.8
20260505035537 57 167 1.7 6.1 0.00 0.00 0.00 47 1004.8
20260505035441 57 189 2.6 6.1 0.00 0.00 0.00 47 1004.8
20260505035401 57 191 2.6 6.1 0.00 0.00 0.00 47 1004.8
20260505035223 57 162 1.7 6.1 0.00 0.00 0.00 46 1004.8
20260505035146 57 158 2.6 6.1 0.00 0.00 0.00 46 1004.8
20260505035112 56 154 3.5 6.1 0.00 0.00 0.00 46 1004.8
20260505034936 56 169 3.5 6.1 0.00 0.00 0.00 46 1004.8
20260505034907 56 146 3.5 6.1 0.00 0.00 0.00 45 1004.8
20260505034740 56 153 2.6 5.2 0.00 0.00 0.00 45 1004.9
20260505034642 56 150 2.6 4.3 0.00 0.00 0.00 44 1004.8
20260505034525 56 150 2.6 5.2 0.00 0.00 0.00 44 1004.9
20260505034447 55 127 1.7 5.2 0.00 0.00 0.00 44 1004.9
20260505034342 55 155 1.7 5.2 0.00 0.00 0.00 43 1004.9
20260505034230 55 164 1.7 5.2 0.00 0.00 0.00 43 1004.9
20260505034151 55 159 1.7 5.2 0.00 0.00 0.00 43 1004.9
20260505033933 55 142 2.6 5.2 0.00 0.00 0.00 42 1004.9
20260505033837 55 155 2.6 5.2 0.00 0.00 0.00 41 1004.8
20260505033740 54 117 1.7 6.1 0.00 0.00 0.00 40 1004.8
20260505033703 54 140 1.7 6.1 0.00 0.00 0.00 40 1004.8
20260505033525 54 147 1.7 6.1 0.00 0.00 0.00 39 1004.8
20260505033427 54 134 1.7 6.1 0.00 0.00 0.00 38 1004.8
20260505033352 54 126 1.7 6.1 0.00 0.00 0.00 38 1004.8
20260505033259 54 126 2.6 6.1 0.00 0.00 0.00 38 1004.8
20260505033220 54 135 2.6 6.1 0.00 0.00 0.00 38 1004.8
20260505033025 53 136 1.7 4.3 0.00 0.00 0.00 36 1004.9
20260505032928 53 155 1.7 4.3 0.00 0.00 0.00 35 1004.9
20260505032832 53 175 1.7 4.3 0.00 0.00 0.00 34 1004.9
20260505032733 53 151 1.7 4.3 0.00 0.00 0.00 33 1004.8
20260505032537 53 140 1.7 3.5 0.00 0.00 0.00 31 1004.8
20260505032438 52 137 0.9 2.6 0.00 0.00 0.00 30 1004.8
20260505032341 52 138 1.7 2.6 0.00 0.00 0.00 29 1004.8
20260505032309 52 138 1.7 2.6 0.00 0.00 0.00 29 1004.8
20260505032230 52 140 0.9 2.6 0.00 0.00 0.00 28 1004.8
20260505032034 52 139 0.9 2.6 0.00 0.00 0.00 26 1004.8
20260505031937 52 136 1.7 2.6 0.00 0.00 0.00 25 1004.8
20260505031839 52 130 0.9 3.5 0.00 0.00 0.00 24 1004.9
20260505031801 52 130 0.9 3.5 0.00 0.00 0.00 24 1004.9
20260505031720 51 130 0.9 3.5 0.00 0.00 0.00 23 1004.8
20260505031623 51 130 0.9 3.5 0.00 0.00 0.00 22 1004.8
20260505031524 51 127 0.9 3.5 0.00 0.00 0.00 22 1004.8
20260505031330 51 127 0.9 3.5 0.00 0.00 0.00 21 1004.9
20260505031236 51 127 1.7 3.5 0.00 0.00 0.00 20 1004.9
20260505031140 51 127 1.7 3.5 0.00 0.00 0.00 20 1004.8
20260505031104 51 132 1.7 3.5 0.00 0.00 0.00 20 1004.8
20260505031025 51 139 1.7 3.5 0.00 0.00 0.00 20 1004.8
20260505030858 51 144 0.9 2.6 0.00 0.00 0.00 20 1004.8
20260505030728 51 145 0.9 2.6 0.00 0.00 0.00 19 1004.8
20260505030653 51 147 0.9 2.6 0.00 0.00 0.00 19 1004.8
20260505030557 51 147 0.9 2.6 0.00 0.00 0.00 19 1004.8
20260505030437 51 146 0.0 2.6 0.00 0.00 0.00 20 1004.9
20260505030340 51 146 0.9 2.6 0.00 0.00 0.00 19 1004.9
20260505030306 51 146 0.9 2.6 0.00 0.00 0.00 19 1004.9
20260505030229 51 146 0.9 2.6 0.00 0.00 0.00 19 1005.0
20260505030031 51 225 0.0 0.0 0.00 0.00 0.00 20 1004.9
20260505025955 51 225 0.0 0.0 0.00 0.00 0.00 20 1004.9
20260505025859 51 225 0.0 0.0 0.00 0.00 0.00 20 1004.9
20260505025820 51 225 0.0 0.0 0.00 0.00 0.00 20 1004.9
20260505025626 51 225 0.0 0.0 0.00 0.00 0.00 21 1004.9
20260505025527 51 225 0.0 0.0 0.00 0.00 0.00 21 1004.9
20260505025429 51 225 0.0 0.0 0.00 0.00 0.00 20 1004.8
20260505025334 51 225 0.0 0.0 0.00 0.00 0.00 20 1004.9
20260505025257 51 225 0.0 0.0 0.00 0.00 0.00 20 1004.9
20260505025159 52 225 0.0 0.0 0.00 0.00 0.00 20 1004.9
20260505025121 52 225 0.0 0.0 0.00 0.00 0.00 20 1004.9
20260505024924 52 225 0.0 0.0 0.00 0.00 0.00 20 1004.9
20260505024826 52 225 0.0 0.0 0.00 0.00 0.00 21 1005.0
20260505024728 52 225 0.0 0.0 0.00 0.00 0.00 22 1005.0
20260505024652 52 225 0.0 0.0 0.00 0.00 0.00 23 1005.0
20260505024613 52 225 0.0 0.0 0.00 0.00 0.00 23 1005.0
20260505024518 52 225 0.0 0.0 0.00 0.00 0.00 24 1005.0
20260505024439 52 225 0.0 0.0 0.00 0.00 0.00 24 1005.0
20260505024313 52 225 0.0 0.0 0.00 0.00 0.00 25 1005.0
20260505024229 52 225 0.0 0.0 0.00 0.00 0.00 26 1005.0
20260505024040 53 225 0.0 0.0 0.00 0.00 0.00 27 1005.0
20260505023954 53 225 0.0 0.0 0.00 0.00 0.00 28 1005.0
20260505023823 53 225 0.0 0.0 0.00 0.00 0.00 30 1005.0
20260505023742 53 225 0.0 0.0 0.00 0.00 0.00 30 1005.1
20260505023614 53 225 0.0 0.0 0.00 0.00 0.00 31 1005.1
20260505023526 53 225 0.0 0.0 0.00 0.00 0.00 32 1005.1
20260505023356 53 225 0.0 0.0 0.00 0.00 0.00 34 1005.2
20260505023258 53 225 0.0 0.0 0.00 0.00 0.00 35 1005.2
20260505023213 53 225 0.0 0.0 0.00 0.00 0.00 34 1005.2
20260505023114 53 225 0.0 0.0 0.00 0.00 0.00 34 1005.3
20260505023039 54 225 0.0 0.0 0.00 0.00 0.00 35 1005.2
20260505022821 54 225 0.0 0.0 0.00 0.00 0.00 35 1005.2
20260505022745 54 225 0.0 0.0 0.00 0.00 0.00 35 1005.2
20260505022647 54 225 0.0 0.0 0.00 0.00 0.00 35 1005.3
20260505022608 54 225 0.0 0.0 0.00 0.00 0.00 35 1005.3
20260505022418 54 225 0.0 0.0 0.00 0.00 0.00 35 1005.3
20260505022333 54 225 0.0 0.0 0.00 0.00 0.00 35 1005.3
20260505022141 54 225 0.0 0.0 0.00 0.00 0.00 35 1005.3
20260505022057 54 225 0.0 0.0 0.00 0.00 0.00 33 1005.3
20260505022020 54 209 0.0 0.0 0.00 0.00 0.00 32 1005.3
20260505021836 54 209 0.0 0.0 0.00 0.00 0.00 36 1005.3
20260505021739 54 209 0.0 0.0 0.00 0.00 0.00 36 1005.3
20260505021659 54 209 0.0 0.0 0.00 0.00 0.00 36 1005.3
20260505021622 54 209 0.0 0.0 0.00 0.00 0.00 36 1005.3
20260505021424 55 209 0.0 0.0 0.00 0.00 0.00 35 1005.3
20260505021348 55 209 0.0 0.0 0.00 0.00 0.00 35 1005.3
20260505021231 55 209 0.0 0.0 0.00 0.00 0.00 36 1005.3
20260505021154 54 209 0.0 0.0 0.00 0.00 0.00 36 1005.3
20260505020936 54 209 0.0 0.0 0.00 0.00 0.00 36 1005.3
20260505020858 54 209 0.0 0.0 0.00 0.00 0.00 36 1005.3
20260505020807 54 209 0.0 0.0 0.00 0.00 0.00 35 1005.3
20260505020729 54 209 0.0 0.0 0.00 0.00 0.00 35 1005.4
20260505020540 54 209 0.0 0.0 0.00 0.00 0.00 35 1005.4
20260505020434 54 209 0.0 0.0 0.00 0.00 0.00 34 1005.4
20260505020358 54 209 0.0 0.0 0.00 0.00 0.00 33 1005.4
20260505020311 54 209 0.0 0.0 0.00 0.00 0.00 33 1005.3
20260505020232 54 209 0.0 0.0 0.00 0.00 0.00 32 1005.3
20260505015936 54 209 0.0 1.7 0.00 0.00 0.00 28 1005.3
20260505015825 54 209 0.0 1.7 0.00 0.00 0.00 28 1005.2
20260505015745 54 209 0.0 1.7 0.00 0.00 0.00 30 1005.2
20260505015617 54 209 0.0 2.6 0.00 0.00 0.00 29 1005.2
20260505015532 54 209 0.0 2.6 0.00 0.00 0.00 28 1005.2
20260505015341 54 209 0.0 2.6 0.00 0.00 0.00 28 1005.2
20260505015257 54 209 0.0 2.6 0.00 0.00 0.00 30 1005.2
20260505015218 54 209 0.0 2.6 0.00 0.00 0.00 30 1005.2
20260505015035 54 218 0.0 2.6 0.00 0.00 0.00 28 1005.1
20260505014936 54 218 0.9 2.6 0.00 0.00 0.00 29 1005.1
20260505014822 54 215 0.9 2.6 0.00 0.00 0.00 27 1005.1
20260505014745 54 165 0.9 1.7 0.00 0.00 0.00 25 1005.1
20260505014707 53 165 0.0 1.7 0.00 0.00 0.00 24 1005.1
20260505014611 53 214 0.0 1.7 0.00 0.00 0.00 26 1005.1
20260505014532 53 214 0.0 1.7 0.00 0.00 0.00 26 1005.1
20260505014336 53 214 0.0 1.7 0.00 0.00 0.00 27 1005.0
20260505014238 53 214 0.0 1.7 0.00 0.00 0.00 27 1005.1
20260505014141 53 214 0.0 1.7 0.00 0.00 0.00 27 1005.1
20260505014045 53 214 0.0 1.7 0.00 0.00 0.00 28 1005.1
20260505013925 53 214 0.0 0.9 0.00 0.00 0.00 28 1005.2
20260505013828 53 214 0.0 0.9 0.00 0.00 0.00 28 1005.1
20260505013749 53 214 0.0 0.9 0.00 0.00 0.00 28 1005.1
20260505013620 53 214 0.0 0.9 0.00 0.00 0.00 29 1005.1
20260505013536 53 214 0.0 0.9 0.00 0.00 0.00 30 1005.0
20260505013406 53 214 0.0 0.9 0.00 0.00 0.00 29 1005.1
20260505013328 53 214 0.0 0.9 0.00 0.00 0.00 29 1005.1
20260505013133 54 214 0.0 0.9 0.00 0.00 0.00 29 1005.1
20260505013035 54 214 0.0 1.7 0.00 0.00 0.00 29 1005.2
20260505012936 54 214 0.0 1.7 0.00 0.00 0.00 27 1005.1
20260505012904 54 214 0.0 1.7 0.00 0.00 0.00 28 1005.1
20260505012824 54 214 0.0 1.7 0.00 0.00 0.00 28 1005.1
20260505012627 54 214 0.0 1.7 0.00 0.00 0.00 29 1005.1
20260505012552 54 214 0.0 1.7 0.00 0.00 0.00 30 1005.1
20260505012456 54 214 0.0 1.7 0.00 0.00 0.00 31 1005.0
20260505012358 54 214 0.0 1.7 0.00 0.00 0.00 30 1005.0
20260505012228 54 214 0.0 1.7 0.00 0.00 0.00 29 1005.0
20260505012123 54 214 0.0 0.0 0.00 0.00 0.00 28 1005.1
20260505011934 55 214 0.0 0.9 0.00 0.00 0.00 28 1005.0
20260505011738 55 214 0.0 0.9 0.00 0.00 0.00 30 1005.1
20260505011704 55 214 0.0 0.9 0.00 0.00 0.00 31 1005.1
20260505011626 55 214 0.0 0.9 0.00 0.00 0.00 31 1005.1
20260505011430 55 214 0.0 0.9 0.00 0.00 0.00 33 1005.2
20260505011353 55 214 0.0 0.9 0.00 0.00 0.00 33 1005.2
20260505011237 55 214 0.0 0.9 0.00 0.00 0.00 33 1005.0
20260505011200 55 214 0.0 0.9 0.00 0.00 0.00 34 1005.0
20260505011105 56 214 0.0 0.9 0.00 0.00 0.00 34 1005.1
20260505011026 56 214 0.0 0.9 0.00 0.00 0.00 35 1005.1
20260505010857 56 214 0.0 0.9 0.00 0.00 0.00 37 1005.0
20260505010752 56 214 0.0 0.9 0.00 0.00 0.00 39 1005.0
20260505010622 56 214 0.0 0.9 0.00 0.00 0.00 40 1005.0
20260505010525 56 214 0.0 0.9 0.00 0.00 0.00 41 1004.9
20260505010329 57 214 0.0 0.9 0.00 0.00 0.00 44 1004.9
20260505010230 57 214 0.9 0.9 0.00 0.00 0.00 45 1004.9
20260505010134 57 214 0.0 0.9 0.00 0.00 0.00 45 1004.9
20260505010058 57 214 0.0 0.9 0.00 0.00 0.00 46 1004.9
20260505010020 57 214 0.0 0.9 0.00 0.00 0.00 46 1004.9
20260505005833 57 214 0.0 0.9 0.00 0.00 0.00 48 1004.9
20260505005756 58 214 0.0 0.9 0.00 0.00 0.00 48 1004.9
20260505005625 58 214 0.0 0.9 0.00 0.00 0.00 48 1004.9
20260505005541 58 214 0.0 0.9 0.00 0.00 0.00 48 1004.9
20260505005411 58 214 0.0 0.9 0.00 0.00 0.00 49 1004.9
20260505005332 58 214 0.0 0.9 0.00 0.00 0.00 49 1004.9
20260505005137 59 214 0.0 1.7 0.00 0.00 0.00 50 1004.9
20260505005040 59 214 0.0 1.7 0.00 0.00 0.00 50 1004.9
20260505004942 59 214 0.0 1.7 0.00 0.00 0.00 50 1004.8
20260505004905 59 214 0.0 1.7 0.00 0.00 0.00 50 1004.8
20260505004826 59 214 0.0 1.7 0.00 0.00 0.00 51 1004.8
20260505004708 60 214 0.0 1.7 0.00 0.00 0.00 51 1004.8
20260505004629 60 214 0.0 1.7 0.00 0.00 0.00 51 1004.8
20260505004439 60 214 0.9 1.7 0.00 0.00 0.00 51 1004.8
20260505004340 60 214 0.0 1.7 0.00 0.00 0.00 51 1004.7
20260505004243 61 214 0.0 1.7 0.00 0.00 0.00 51 1004.7
20260505004205 61 214 0.0 1.7 0.00 0.00 0.00 52 1004.8
20260505004035 61 214 0.9 3.5 0.00 0.00 0.00 52 1004.7
20260505003928 61 214 0.9 3.5 0.00 0.00 0.00 52 1004.8
20260505003757 61 214 0.9 3.5 0.00 0.00 0.00 49 1004.7
20260505003658 61 202 0.9 3.5 0.00 0.00 0.00 50 1004.7
20260505003542 62 200 0.9 3.5 0.00 0.00 0.00 51 1004.8
20260505003515 62 200 0.9 3.5 0.00 0.00 0.00 51 1004.7
20260505003322 62 178 0.9 3.5 0.00 0.00 0.00 49 1004.7
20260505003245 62 178 1.7 4.3 0.00 0.00 0.00 48 1004.7
20260505003129 62 194 1.7 4.3 0.00 0.00 0.00 50 1004.7
20260505003053 62 186 1.7 4.3 0.00 0.00 0.00 48 1004.7
20260505003016 63 137 1.7 4.3 0.00 0.00 0.00 49 1004.6
20260505002920 63 157 0.9 4.3 0.00 0.00 0.00 48 1004.7
20260505002841 63 163 1.7 4.3 0.00 0.00 0.00 48 1004.7
20260505002712 63 155 1.7 4.3 0.00 0.00 0.00 48 1004.7
20260505002626 63 144 2.6 4.3 0.00 0.00 0.00 47 1004.7
20260505002438 63 211 2.6 6.1 0.00 0.00 0.00 47 1004.6
20260505002338 63 185 1.7 6.1 0.00 0.00 0.00 48 1004.6
20260505002231 63 223 1.7 6.1 0.00 0.00 0.00 46 1004.6
20260505002153 63 220 1.7 6.1 0.00 0.00 0.00 46 1004.6
20260505002114 63 215 1.7 6.1 0.00 0.00 0.00 46 1004.6
20260505001947 63 193 1.7 6.1 0.00 0.00 0.00 46 1004.6
20260505001839 63 200 1.7 6.1 0.00 0.00 0.00 46 1004.6
20260505001741 64 204 2.6 6.1 0.00 0.00 0.00 46 1004.5
20260505001642 64 190 2.6 6.1 0.00 0.00 0.00 47 1004.5
20260505001541 64 188 1.7 4.3 0.00 0.00 0.00 46 1004.5
20260505001427 64 150 1.7 4.3 0.00 0.00 0.00 46 1004.5
20260505001351 64 206 2.6 4.3 0.00 0.00 0.00 46 1004.5
20260505001312 64 200 2.6 4.3 0.00 0.00 0.00 46 1004.5
20260505001151 64 200 1.7 4.3 0.00 0.00 0.00 46 1004.5
20260505001054 64 196 1.7 3.5 0.00 0.00 0.00 46 1004.5
20260505001016 64 177 1.7 5.2 0.00 0.00 0.00 47 1004.5
20260505000921 64 170 1.7 5.2 0.00 0.00 0.00 45 1004.4
20260505000729 65 168 1.7 5.2 0.00 0.00 0.00 45 1004.4
20260505000623 65 178 0.9 5.2 0.00 0.00 0.00 44 1004.4
20260505000547 65 146 0.9 5.2 0.00 0.00 0.00 44 1004.4
20260505000444 65 185 1.7 5.2 0.00 0.00 0.00 44 1004.4
20260505000406 65 185 1.7 5.2 0.00 0.00 0.00 44 1004.4
20260505000326 65 153 2.6 5.2 0.00 0.00 0.00 44 1004.4
20260505000211 65 193 3.5 5.2 0.00 0.00 0.00 44 1004.4
20260505000130 65 202 3.5 5.2 0.00 0.00 0.00 44 1004.4
20260504235934 65 190 1.7 7.8 0.00 0.00 0.00 44 1004.3
20260504235835 65 198 2.6 8.7 0.00 0.00 0.00 43 1004.3
20260504235737 65 190 3.5 8.7 0.00 0.00 0.00 43 1004.3
20260504235659 65 172 3.5 8.7 0.00 0.00 0.00 43 1004.3
20260504235621 66 146 3.5 8.7 0.00 0.00 0.00 43 1004.3
20260504235428 66 221 3.5 8.7 0.00 0.00 0.00 43 1004.3
20260504235353 66 187 4.3 8.7 0.00 0.00 0.00 43 1004.3
20260504235259 66 121 5.2 8.7 0.00 0.00 0.00 43 1004.2
20260504235220 66 175 6.1 8.7 0.00 0.00 0.00 42 1004.3
20260504235024 65 199 3.5 7.8 0.00 0.00 0.00 43 1004.2
20260504234925 66 197 2.6 7.0 0.00 0.00 0.00 43 1004.2
20260504234830 66 187 2.6 7.0 0.00 0.00 0.00 43 1004.3
20260504234727 66 167 2.6 7.0 0.00 0.00 0.00 43 1004.3
20260504234537 66 236 1.7 7.8 0.00 0.00 0.00 43 1004.3
20260504234437 66 257 2.6 7.8 0.00 0.00 0.00 44 1004.3
20260504234313 66 174 3.5 7.8 0.00 0.00 0.00 43 1004.3
20260504234246 66 173 4.3 7.8 0.00 0.00 0.00 42 1004.3
20260504234127 66 158 3.5 7.8 0.00 0.00 0.00 43 1004.2
20260504234051 66 186 2.6 7.8 0.00 0.00 0.00 43 1004.2
20260504234014 66 154 2.6 7.8 0.00 0.00 0.00 42 1004.2
20260504233915 66 201 3.5 7.8 0.00 0.00 0.00 42 1004.2
20260504233837 66 195 4.3 7.8 0.00 0.00 0.00 43 1004.2
20260504233706 66 196 4.3 7.0 0.00 0.00 0.00 42 1004.1
20260504233620 66 186 3.5 7.0 0.00 0.00 0.00 42 1004.1
20260504233407 66 236 2.6 6.1 0.00 0.00 0.00 43 1004.1
20260504233238 66 182 2.6 6.1 0.00 0.00 0.00 42 1004.0
20260504233131 66 191 3.5 6.1 0.00 0.00 0.00 42 1004.0
20260504232942 66 184 3.5 6.1 0.00 0.00 0.00 42 1004.0
20260504232838 66 221 3.5 6.1 0.00 0.00 0.00 42 1004.0
20260504232721 66 207 3.5 5.2 0.00 0.00 0.00 42 1003.9
20260504232644 66 184 2.6 5.2 0.00 0.00 0.00 43 1003.9
20260504232608 66 183 1.7 8.7 0.00 0.00 0.00 42 1004.0
20260504232430 67 221 1.7 8.7 0.00 0.00 0.00 42 1003.8
20260504232356 67 221 2.6 8.7 0.00 0.00 0.00 42 1003.8
20260504232208 67 188 2.6 8.7 0.00 0.00 0.00 42 1003.8
20260504232016 67 221 3.5 8.7 0.00 0.00 0.00 41 1003.8
20260504231938 67 223 3.5 8.7 0.00 0.00 0.00 41 1003.7
20260504231809 67 213 4.3 8.7 0.00 0.00 0.00 41 1003.8
20260504231623 67 208 3.5 7.0 0.00 0.00 0.00 41 1003.7
20260504231525 67 229 3.5 7.0 0.00 0.00 0.00 41 1003.8
20260504231446 67 205 2.6 7.0 0.00 0.00 0.00 41 1003.8
20260504231350 67 236 2.6 7.0 0.00 0.00 0.00 41 1003.8
20260504231232 67 212 2.6 7.0 0.00 0.00 0.00 41 1003.8
20260504231148 67 178 2.6 7.0 0.00 0.00 0.00 41 1003.8
20260504231031 67 190 4.3 7.0 0.00 0.00 0.00 41 1003.7
20260504230955 67 169 4.3 7.0 0.00 0.00 0.00 42 1003.7
20260504230911 67 190 3.5 7.0 0.00 0.00 0.00 41 1003.8
20260504230631 67 193 3.5 7.0 0.00 0.00 0.00 41 1003.7
20260504230525 67 186 2.6 7.0 0.00 0.00 0.00 41 1003.7
20260504230448 67 186 1.7 7.0 0.00 0.00 0.00 41 1003.7
20260504230406 67 222 0.9 7.0 0.00 0.00 0.00 41 1003.7
20260504230337 67 240 1.7 7.0 0.00 0.00 0.00 41 1003.7
20260504230131 67 207 2.6 7.0 0.00 0.00 0.00 41 1003.7
20260504230025 67 158 2.6 7.0 0.00 0.00 0.00 40 1003.7
20260504225959 68 195 2.6 7.0 0.00 0.00 0.00 40 1003.7
20260504225824 68 207 3.5 7.0 0.00 0.00 0.00 40 1003.6
20260504225740 68 241 1.7 7.0 0.00 0.00 0.00 41 1003.6
20260504225641 68 191 1.7 7.0 0.00 0.00 0.00 41 1003.6
20260504225546 68 222 2.6 7.0 0.00 0.00 0.00 41 1003.6
20260504225507 68 205 3.5 7.0 0.00 0.00 0.00 41 1003.5
20260504225430 68 177 3.5 7.0 0.00 0.00 0.00 40 1003.5
20260504225316 68 169 3.5 7.8 0.00 0.00 0.00 40 1003.6
20260504225237 68 195 2.6 6.1 0.00 0.00 0.00 40 1003.6
20260504225108 68 202 2.6 6.1 0.00 0.00 0.00 40 1003.5
20260504225004 68 184 2.6 7.0 0.00 0.00 0.00 40 1003.5
20260504224835 68 263 3.5 9.6 0.00 0.00 0.00 39 1003.4
20260504224734 68 263 4.3 9.6 0.00 0.00 0.00 39 1003.5
20260504224536 68 175 4.3 9.6 0.00 0.00 0.00 39 1003.5
20260504224458 68 221 3.5 9.6 0.00 0.00 0.00 39 1003.5
20260504224401 68 244 3.5 9.6 0.00 0.00 0.00 39 1003.4
20260504224244 68 193 5.2 9.6 0.00 0.00 0.00 39 1003.4
20260504224131 69 197 6.1 9.6 0.00 0.00 0.00 39 1003.3
20260504224055 69 190 5.2 9.6 0.00 0.00 0.00 39 1003.3
20260504224016 69 191 3.5 9.6 0.00 0.00 0.00 39 1003.4
20260504223920 69 157 4.3 9.6 0.00 0.00 0.00 39 1003.3
20260504223820 69 229 6.1 9.6 0.00 0.00 0.00 39 1003.3
20260504223653 69 178 6.1 10.4 0.00 0.00 0.00 39 1003.4
20260504223545 69 207 6.1 9.6 0.00 0.00 0.00 39 1003.4
20260504223415 69 170 4.3 10.4 0.00 0.00 0.00 38 1003.4
20260504223338 69 197 4.3 9.6 0.00 0.00 0.00 38 1003.3
20260504223121 69 198 6.1 9.6 0.00 0.00 0.00 38 1003.3
20260504223046 69 206 5.2 9.6 0.00 0.00 0.00 39 1003.3
20260504222932 69 255 4.3 11.3 0.00 0.00 0.00 39 1003.4
20260504222856 69 180 4.3 11.3 0.00 0.00 0.00 39 1003.3
20260504222739 69 230 4.3 11.3 0.00 0.00 0.00 39 1003.4
20260504222700 69 144 4.3 11.3 0.00 0.00 0.00 40 1003.4
20260504222621 69 209 5.2 11.3 0.00 0.00 0.00 39 1003.4
20260504222425 69 257 4.3 8.7 0.00 0.00 0.00 40 1003.4
20260504222349 69 206 3.5 8.7 0.00 0.00 0.00 39 1003.4
20260504222234 69 181 3.5 8.7 0.00 0.00 0.00 39 1003.4
20260504222128 69 188 4.3 8.7 0.00 0.00 0.00 40 1003.4
20260504222055 69 187 4.3 8.7 0.00 0.00 0.00 39 1003.4
20260504222017 69 174 5.2 9.6 0.00 0.00 0.00 39 1003.4
20260504221918 69 194 5.2 9.6 0.00 0.00 0.00 40 1003.3
20260504221800 69 159 5.2 9.6 0.00 0.00 0.00 39 1003.4
20260504221700 69 211 4.3 9.6 0.00 0.00 0.00 40 1003.4
20260504221621 69 197 4.3 9.6 0.00 0.00 0.00 39 1003.4
20260504221426 69 205 3.5 9.6 0.00 0.00 0.00 39 1003.4
20260504221341 69 198 4.3 9.6 0.00 0.00 0.00 39 1003.4
20260504221131 69 193 4.3 10.4 0.00 0.00 0.00 39 1003.3
20260504221029 69 229 4.3 9.6 0.00 0.00 0.00 40 1003.3
20260504220953 69 159 4.3 9.6 0.00 0.00 0.00 39 1003.3
20260504220859 68 191 4.3 9.6 0.00 0.00 0.00 40 1003.4
20260504220740 68 193 6.1 11.3 0.00 0.00 0.00 39 1003.4
20260504220624 68 178 6.1 11.3 0.00 0.00 0.00 39 1003.4
20260504220548 68 213 5.2 11.3 0.00 0.00 0.00 40 1003.4
20260504220425 68 159 3.5 11.3 0.00 0.00 0.00 41 1003.5
20260504220330 68 192 5.2 11.3 0.00 0.00 0.00 40 1003.4
20260504220251 68 198 6.1 11.3 0.00 0.00 0.00 39 1003.4
20260504220125 68 232 7.0 11.3 0.00 0.00 0.00 39 1003.4
20260504215934 68 196 7.0 8.7 0.00 0.00 0.00 39 1003.5
20260504215827 68 165 6.1 13.0 0.00 0.00 0.00 40 1003.4
20260504215708 68 176 6.1 13.0 0.00 0.00 0.00 39 1003.4
20260504215629 68 179 6.1 13.0 0.00 0.00 0.00 39 1003.4
20260504215431 68 153 6.1 13.0 0.00 0.00 0.00 39 1003.4
20260504215355 68 177 7.0 13.0 0.00 0.00 0.00 39 1003.4
20260504215238 68 173 7.0 13.0 0.00 0.00 0.00 39 1003.4
20260504215148 68 136 7.8 13.0 0.00 0.00 0.00 39 1003.4
20260504215026 68 157 7.0 13.0 0.00 0.00 0.00 39 1003.3
20260504214930 68 141 5.2 10.4 0.00 0.00 0.00 39 1003.4
20260504214852 68 188 7.0 10.4 0.00 0.00 0.00 39 1003.4
20260504214814 68 161 7.0 10.4 0.00 0.00 0.00 39 1003.4
20260504214719 68 185 7.0 10.4 0.00 0.00 0.00 39 1003.4
20260504214640 68 221 7.0 11.3 0.00 0.00 0.00 39 1003.4
20260504214512 68 245 7.8 13.0 0.00 0.00 0.00 39 1003.4
20260504214427 68 200 7.0 13.9 0.00 0.00 0.00 39 1003.4
20260504214225 69 134 7.0 13.0 0.00 0.00 0.00 39 1003.4
20260504214037 69 185 4.3 13.0 0.00 0.00 0.00 40 1003.4
20260504213931 69 209 5.2 13.0 0.00 0.00 0.00 39 1003.4
20260504213859 69 238 6.1 13.0 0.00 0.00 0.00 39 1003.4
20260504213724 69 208 7.0 13.0 0.00 0.00 0.00 39 1003.3
20260504213640 69 166 6.1 13.9 0.00 0.00 0.00 38 1003.3
20260504213509 69 152 6.1 15.6 0.00 0.00 0.00 38 1003.6
20260504213432 69 195 7.0 15.6 0.00 0.00 0.00 38 1003.4
20260504213234 69 172 7.8 15.6 0.00 0.00 0.00 38 1003.2
20260504213156 69 203 7.8 15.6 0.00 0.00 0.00 38 1003.2
20260504213100 69 163 8.7 15.6 0.00 0.00 0.00 37 1003.3
20260504212942 69 188 7.8 15.6 0.00 0.00 0.00 38 1003.3
20260504212830 69 160 7.8 15.6 0.00 0.00 0.00 37 1003.3
20260504212752 69 153 7.0 15.6 0.00 0.00 0.00 37 1003.3
20260504212708 70 114 6.1 13.0 0.00 0.00 0.00 38 1003.3
20260504212516 70 195 7.8 13.0 0.00 0.00 0.00 38 1003.3
20260504212438 70 168 7.0 13.0 0.00 0.00 0.00 38 1003.2
20260504212301 70 172 7.8 13.0 0.00 0.00 0.00 39 1003.2
20260504212222 70 169 7.8 13.0 0.00 0.00 0.00 39 1003.4
20260504212034 70 142 6.1 19.1 0.00 0.00 0.00 39 1003.3
20260504211927 70 222 4.3 19.1 0.00 0.00 0.00 40 1003.3
20260504211851 69 172 4.3 19.1 0.00 0.00 0.00 40 1003.3
20260504211738 69 187 4.3 19.1 0.00 0.00 0.00 39 1003.2
20260504211700 69 169 4.3 19.1 0.00 0.00 0.00 40 1003.2
20260504211615 69 199 4.3 19.1 0.00 0.00 0.00 39 1003.2
20260504211427 69 224 7.8 19.1 0.00 0.00 0.00 40 1003.2
20260504211344 69 211 11.3 19.1 0.00 0.00 0.00 39 1003.2
20260504211213 69 136 7.8 19.1 0.00 0.00 0.00 39 1003.3
20260504211135 69 183 6.1 12.2 0.00 0.00 0.00 39 1003.2
20260504210938 69 157 6.1 13.9 0.00 0.00 0.00 39 1003.0
20260504210841 69 167 7.0 13.9 0.00 0.00 0.00 39 1003.2
20260504210725 69 161 6.1 13.9 0.00 0.00 0.00 39 1003.2
20260504210650 69 213 4.3 13.9 0.00 0.00 0.00 39 1003.2
20260504210610 69 200 5.2 13.9 0.00 0.00 0.00 40 1003.2
20260504210515 69 186 4.3 13.9 0.00 0.00 0.00 39 1003.2
20260504210437 69 214 6.1 13.9 0.00 0.00 0.00 39 1003.2
20260504210231 69 174 6.1 13.0 0.00 0.00 0.00 39 1003.3
20260504210132 69 188 5.2 13.0 0.00 0.00 0.00 39 1003.2
20260504210036 69 238 5.2 13.0 0.00 0.00 0.00 40 1003.2
20260504205939 69 198 7.0 13.0 0.00 0.00 0.00 40 1003.3
20260504205629 69 263 7.0 13.0 0.00 0.00 0.00 39 1003.4
20260504205535 69 193 7.0 11.3 0.00 0.00 0.00 40 1003.3
20260504205448 69 232 5.2 11.3 0.00 0.00 0.00 40 1003.2
20260504205349 69 142 5.2 11.3 0.00 0.00 0.00 41 1003.2
20260504205310 69 205 7.0 11.3 0.00 0.00 0.00 41 1003.2
20260504205112 69 255 5.2 12.2 0.00 0.00 0.00 40 1003.3
20260504205035 69 174 5.2 11.3 0.00 0.00 0.00 43 1003.2
20260504204905 69 192 6.1 13.0 0.00 0.00 0.00 40 1003.2
20260504204827 69 172 6.1 13.0 0.00 0.00 0.00 40 1003.2
20260504204629 69 171 6.1 13.0 0.00 0.00 0.00 41 1003.2
20260504204550 69 187 5.2 13.0 0.00 0.00 0.00 41 1003.2
20260504204438 69 184 5.2 13.0 0.00 0.00 0.00 41 1003.2
20260504204402 69 177 7.0 13.0 0.00 0.00 0.00 41 1003.2
20260504204223 69 169 8.7 13.0 0.00 0.00 0.00 41 1003.2
20260504204147 69 140 9.6 13.0 0.00 0.00 0.00 40 1003.2
20260504204023 69 126 7.0 13.0 0.00 0.00 0.00 41 1003.2
20260504203927 69 173 6.1 13.0 0.00 0.00 0.00 43 1003.1
20260504203851 69 163 6.1 13.0 0.00 0.00 0.00 42 1003.1
20260504203812 69 153 7.8 13.0 0.00 0.00 0.00 42 1003.1
20260504203716 69 151 8.7 13.0 0.00 0.00 0.00 41 1003.1
20260504203638 69 153 7.8 11.3 0.00 0.00 0.00 41 1003.2
20260504203513 68 164 4.3 10.4 0.00 0.00 0.00 43 1003.1
20260504203415 68 155 3.5 10.4 0.00 0.00 0.00 44 1003.2
20260504203238 68 177 5.2 10.4 0.00 0.00 0.00 43 1003.3
20260504203201 68 183 7.0 10.4 0.00 0.00 0.00 45 1003.3
20260504202944 68 171 7.0 10.4 0.00 0.00 0.00 44 1003.3
20260504202907 68 178 7.0 10.4 0.00 0.00 0.00 43 1003.3
20260504202812 67 138 7.0 10.4 0.00 0.00 0.00 44 1003.3
20260504202735 67 136 7.0 10.4 0.00 0.00 0.00 44 1003.3
20260504202604 67 163 7.0 10.4 0.00 0.00 0.00 45 1003.4
20260504202516 67 192 6.1 10.4 0.00 0.00 0.00 45 1003.4
20260504202346 67 190 5.2 10.4 0.00 0.00 0.00 45 1003.4
20260504202252 67 148 4.3 13.0 0.00 0.00 0.00 45 1003.4
20260504202153 67 164 5.2 13.0 0.00 0.00 0.00 44 1003.4
20260504202035 67 155 6.1 13.0 0.00 0.00 0.00 43 1003.5
20260504201959 67 175 7.0 13.0 0.00 0.00 0.00 43 1003.5
20260504201915 67 191 7.0 13.0 0.00 0.00 0.00 43 1003.5
20260504201725 67 173 4.3 13.0 0.00 0.00 0.00 44 1003.5
20260504201638 67 142 4.3 13.0 0.00 0.00 0.00 43 1003.6
20260504201510 67 144 7.8 13.0 0.00 0.00 0.00 43 1003.5
20260504201432 67 173 7.8 12.2 0.00 0.00 0.00 44 1003.6
20260504201233 67 183 5.2 12.2 0.00 0.00 0.00 44 1003.6
20260504201159 67 165 4.3 12.2 0.00 0.00 0.00 44 1003.6
20260504201041 67 206 6.1 12.2 0.00 0.00 0.00 43 1003.7
20260504201004 67 155 7.0 12.2 0.00 0.00 0.00 43 1003.7
20260504200918 67 243 7.0 12.2 0.00 0.00 0.00 43 1003.8
20260504200729 67 192 6.1 13.9 0.00 0.00 0.00 43 1003.7
20260504200623 67 229 5.2 13.9 0.00 0.00 0.00 44 1003.8
20260504200545 67 227 5.2 13.9 0.00 0.00 0.00 44 1003.8
20260504200500 67 234 6.1 13.9 0.00 0.00 0.00 43 1003.7
20260504200422 67 148 6.1 13.9 0.00 0.00 0.00 43 1003.7
20260504200237 67 157 5.2 13.9 0.00 0.00 0.00 44 1003.7
20260504200131 67 160 6.1 13.0 0.00 0.00 0.00 43 1003.7
20260504200053 68 171 7.0 13.0 0.00 0.00 0.00 43 1003.7
20260504195959 68 140 7.8 13.0 0.00 0.00 0.00 42 1003.8
20260504195838 68 182 6.1 13.0 0.00 0.00 0.00 43 1003.9
20260504195754 68 216 5.2 13.0 0.00 0.00 0.00 43 1003.9
20260504195723 68 155 6.1 13.0 0.00 0.00 0.00 43 1003.9
20260504195625 68 174 7.0 13.0 0.00 0.00 0.00 43 1003.8
20260504195428 68 131 9.6 13.0 0.00 0.00 0.00 42 1003.9
20260504195352 68 190 9.6 13.9 0.00 0.00 0.00 42 1003.9
20260504195239 68 139 8.7 13.9 0.00 0.00 0.00 44 1003.9
20260504195201 68 173 8.7 13.9 0.00 0.00 0.00 44 1003.9
20260504195115 68 205 8.7 13.9 0.00 0.00 0.00 43 1003.9
20260504194947 68 198 7.0 13.0 0.00 0.00 0.00 44 1003.9
20260504194728 67 165 5.2 20.9 0.00 0.00 0.00 44 1003.7
20260504194630 67 95 6.1 20.9 0.00 0.00 0.00 44 1003.7
20260504194533 67 215 9.6 20.9 0.00 0.00 0.00 43 1003.9
20260504194455 67 163 9.6 20.9 0.00 0.00 0.00 42 1003.9
20260504194418 67 120 8.7 20.9 0.00 0.00 0.00 42 1003.8
20260504194224 67 142 7.8 20.9 0.00 0.00 0.00 43 1003.9
20260504194127 67 146 10.4 20.9 0.00 0.00 0.00 44 1004.0
20260504194032 67 219 11.3 20.9 0.00 0.00 0.00 43 1003.9
20260504193954 67 145 9.6 19.1 0.00 0.00 0.00 44 1003.9
20260504193734 67 169 10.4 19.1 0.00 0.00 0.00 44 1004.0
20260504193637 67 159 7.8 19.1 0.00 0.00 0.00 44 1003.9
20260504193541 67 150 11.3 19.1 0.00 0.00 0.00 43 1003.9
20260504193441 67 167 11.3 20.0 0.00 0.00 0.00 42 1004.0
20260504193312 67 190 7.8 18.2 0.00 0.00 0.00 45 1004.0
20260504193228 67 171 7.0 18.2 0.00 0.00 0.00 44 1004.0
20260504193041 67 152 7.0 18.2 0.00 0.00 0.00 44 1004.0
20260504193004 67 150 6.1 18.2 0.00 0.00 0.00 44 1004.0
20260504192918 67 188 7.8 18.2 0.00 0.00 0.00 44 1004.1
20260504192729 67 133 8.7 18.2 0.00 0.00 0.00 44 1004.1
20260504192644 66 183 7.0 18.2 0.00 0.00 0.00 44 1004.1
20260504192515 66 174 7.8 13.9 0.00 0.00 0.00 44 1004.1
20260504192415 66 123 8.7 13.9 0.00 0.00 0.00 44 1004.1
20260504192239 66 184 7.8 13.9 0.00 0.00 0.00 44 1004.1
20260504192142 66 200 7.8 13.9 0.00 0.00 0.00 44 1004.1
20260504192028 67 156 8.7 13.9 0.00 0.00 0.00 43 1004.2
20260504191950 67 161 9.6 13.9 0.00 0.00 0.00 44 1004.2
20260504191904 67 108 9.6 13.9 0.00 0.00 0.00 43 1004.2
20260504191744 67 235 7.8 13.9 0.00 0.00 0.00 43 1004.2
20260504191647 67 146 7.0 13.9 0.00 0.00 0.00 44 1004.2
20260504191523 67 246 9.6 13.9 0.00 0.00 0.00 45 1004.1
20260504191427 67 192 10.4 14.8 0.00 0.00 0.00 43 1004.2
20260504191328 67 175 7.0 12.2 0.00 0.00 0.00 45 1004.2
20260504191253 67 163 5.2 12.2 0.00 0.00 0.00 45 1004.2
20260504191121 67 271 7.0 12.2 0.00 0.00 0.00 45 1004.1
20260504191024 67 219 7.0 12.2 0.00 0.00 0.00 45 1004.2
20260504190948 67 175 7.8 12.2 0.00 0.00 0.00 45 1004.2
20260504190831 66 202 6.1 12.2 0.00 0.00 0.00 44 1004.1
20260504190744 66 171 6.1 12.2 0.00 0.00 0.00 44 1004.1
20260504190640 66 126 8.7 12.2 0.00 0.00 0.00 45 1004.1
20260504190522 66 184 8.7 13.9 0.00 0.00 0.00 43 1004.2
20260504190445 67 172 8.7 14.8 0.00 0.00 0.00 44 1004.2
20260504190411 67 124 7.8 13.9 0.00 0.00 0.00 43 1004.2
20260504190232 67 194 7.0 10.4 0.00 0.00 0.00 45 1004.3
20260504190154 67 155 6.1 10.4 0.00 0.00 0.00 45 1004.3
20260504190018 66 212 6.1 13.9 0.00 0.00 0.00 46 1004.3
20260504185940 66 176 7.0 13.9 0.00 0.00 0.00 45 1004.3
20260504185809 66 218 7.8 13.9 0.00 0.00 0.00 45 1004.3
20260504185720 66 178 8.7 13.9 0.00 0.00 0.00 44 1004.3
20260504185524 66 146 7.0 13.9 0.00 0.00 0.00 45 1004.5
20260504185438 66 182 7.8 13.9 0.00 0.00 0.00 45 1004.5
20260504185346 66 156 7.8 13.9 0.00 0.00 0.00 46 1004.5
20260504185250 65 146 6.1 13.9 0.00 0.00 0.00 44 1004.5
20260504185149 65 102 4.3 14.8 0.00 0.00 0.00 44 1004.5
20260504185010 66 207 7.8 14.8 0.00 0.00 0.00 44 1004.6
20260504184926 66 163 8.7 14.8 0.00 0.00 0.00 44 1004.6
20260504184704 65 159 5.2 13.0 0.00 0.00 0.00 45 1004.6
20260504184625 65 230 4.3 13.0 0.00 0.00 0.00 45 1004.6
20260504184435 65 184 7.0 13.0 0.00 0.00 0.00 44 1004.7
20260504184329 65 219 7.8 13.0 0.00 0.00 0.00 45 1004.7
20260504184138 65 131 7.8 13.0 0.00 0.00 0.00 47 1004.8
20260504184031 65 190 6.1 13.0 0.00 0.00 0.00 45 1004.8
20260504183959 65 213 7.0 20.0 0.00 0.00 0.00 47 1004.8
20260504183824 65 157 7.0 20.0 0.00 0.00 0.00 46 1004.8
20260504183738 65 180 6.1 20.0 0.00 0.00 0.00 46 1004.9
20260504183610 64 209 4.3 20.0 0.00 0.00 0.00 46 1004.8
20260504183532 64 192 6.1 20.0 0.00 0.00 0.00 45 1004.8
20260504183335 64 198 7.0 20.0 0.00 0.00 0.00 45 1004.9
20260504183258 64 160 8.7 20.0 0.00 0.00 0.00 46 1004.9
20260504183136 64 163 12.2 20.0 0.00 0.00 0.00 44 1004.9
20260504183058 64 175 10.4 20.0 0.00 0.00 0.00 44 1004.9
20260504183015 64 139 7.8 16.5 0.00 0.00 0.00 46 1005.0
20260504182845 64 144 7.0 16.5 0.00 0.00 0.00 46 1005.0
20260504182748 64 220 7.8 16.5 0.00 0.00 0.00 47 1005.0
20260504182710 64 181 7.8 16.5 0.00 0.00 0.00 46 1005.0
20260504182613 64 205 8.7 16.5 0.00 0.00 0.00 45 1004.9
20260504182537 64 171 7.8 16.5 0.00 0.00 0.00 45 1005.0
20260504182409 64 164 8.7 16.5 0.00 0.00 0.00 46 1005.0
20260504182322 64 152 7.0 16.5 0.00 0.00 0.00 46 1005.1
20260504182152 64 137 5.2 12.2 0.00 0.00 0.00 47 1005.1
20260504182054 64 126 6.1 12.2 0.00 0.00 0.00 46 1005.1
20260504181939 64 144 7.8 12.2 0.00 0.00 0.00 45 1005.3
20260504181846 64 128 6.1 12.2 0.00 0.00 0.00 46 1005.2
20260504181725 64 170 6.1 10.4 0.00 0.00 0.00 46 1005.2
20260504181647 64 235 7.0 10.4 0.00 0.00 0.00 46 1005.2
20260504181610 64 217 7.0 10.4 0.00 0.00 0.00 46 1005.2
20260504181513 64 192 7.8 12.2 0.00 0.00 0.00 46 1005.1
20260504181436 64 217 7.8 12.2 0.00 0.00 0.00 46 1005.1
20260504181305 64 161 6.1 12.2 0.00 0.00 0.00 46 1005.1
20260504181218 64 157 6.1 12.2 0.00 0.00 0.00 47 1005.1
20260504181030 63 163 7.0 12.2 0.00 0.00 0.00 46 1005.2
20260504180943 63 178 7.8 12.2 0.00 0.00 0.00 46 1005.2
20260504180815 63 204 7.0 12.2 0.00 0.00 0.00 47 1005.3
20260504180736 63 173 7.0 12.2 0.00 0.00 0.00 48 1005.3
20260504180521 63 165 6.1 11.3 0.00 0.00 0.00 47 1005.3
20260504180445 63 169 5.2 11.3 0.00 0.00 0.00 47 1005.3
20260504180327 62 200 6.1 11.3 0.00 0.00 0.00 47 1005.4
20260504180249 62 246 6.1 11.3 0.00 0.00 0.00 47 1005.4
20260504180211 62 227 5.2 11.3 0.00 0.00 0.00 48 1005.5
20260504180113 62 205 3.5 11.3 0.00 0.00 0.00 47 1005.4
20260504180036 62 208 3.5 11.3 0.00 0.00 0.00 48 1005.4
20260504175906 62 161 5.2 11.3 0.00 0.00 0.00 47 1005.5
20260504175740 62 174 5.2 12.2 0.00 0.00 0.00 47 1005.5
20260504175628 62 242 4.3 8.7 0.00 0.00 0.00 48 1005.5
20260504175550 62 204 4.3 8.7 0.00 0.00 0.00 48 1005.5
20260504175419 62 184 5.2 8.7 0.00 0.00 0.00 47 1005.6
20260504175336 62 205 4.3 9.6 0.00 0.00 0.00 47 1005.5
20260504175206 62 157 5.2 12.2 0.00 0.00 0.00 48 1005.5
20260504175127 62 265 5.2 12.2 0.00 0.00 0.00 48 1005.5
20260504174929 62 167 4.3 12.2 0.00 0.00 0.00 48 1005.6
20260504174853 62 166 4.3 12.2 0.00 0.00 0.00 47 1005.6
20260504174735 62 156 3.5 12.2 0.00 0.00 0.00 48 1005.6
20260504174658 62 155 4.3 12.2 0.00 0.00 0.00 48 1005.6
20260504174620 62 185 7.0 12.2 0.00 0.00 0.00 48 1005.6
20260504174506 62 215 7.8 12.2 0.00 0.00 0.00 48 1005.6
20260504174430 62 137 7.8 11.3 0.00 0.00 0.00 48 1005.7
20260504174223 61 158 4.3 12.2 0.00 0.00 0.00 48 1005.7
20260504174143 61 152 4.3 12.2 0.00 0.00 0.00 48 1005.7
20260504174045 61 132 4.3 12.2 0.00 0.00 0.00 48 1005.7
20260504173939 61 157 5.2 12.2 0.00 0.00 0.00 48 1005.7
20260504173902 61 224 5.2 12.2 0.00 0.00 0.00 48 1005.8
20260504173744 61 249 7.0 12.2 0.00 0.00 0.00 47 1005.8
20260504173646 61 197 7.0 12.2 0.00 0.00 0.00 47 1005.8
20260504173608 61 250 7.0 12.2 0.00 0.00 0.00 47 1005.8
20260504173428 61 113 5.2 12.2 0.00 0.00 0.00 48 1005.9
20260504173328 61 91 7.8 12.2 0.00 0.00 0.00 47 1005.8
20260504173230 61 190 9.6 12.2 0.00 0.00 0.00 48 1005.8
20260504173152 61 175 8.7 12.2 0.00 0.00 0.00 48 1005.8
20260504173115 61 194 7.8 12.2 0.00 0.00 0.00 47 1005.9
20260504172939 61 179 4.3 12.2 0.00 0.00 0.00 48 1005.8
20260504172840 61 123 3.5 12.2 0.00 0.00 0.00 48 1005.8
20260504172724 61 184 2.6 14.8 0.00 0.00 0.00 48 1005.8
20260504172647 60 242 4.3 14.8 0.00 0.00 0.00 48 1005.8
20260504172529 60 144 6.1 14.8 0.00 0.00 0.00 47 1005.8
20260504172455 60 182 7.8 14.8 0.00 0.00 0.00 47 1005.8
20260504172416 60 152 7.8 14.8 0.00 0.00 0.00 47 1005.9
20260504172259 60 211 4.3 14.8 0.00 0.00 0.00 47 1005.9
20260504172139 60 168 4.3 14.8 0.00 0.00 0.00 47 1005.9
20260504172024 60 205 7.8 14.8 0.00 0.00 0.00 47 1005.9
20260504171945 60 169 9.6 14.8 0.00 0.00 0.00 48 1005.8
20260504171744 60 132 7.0 11.3 0.00 0.00 0.00 47 1005.9
20260504171638 60 184 5.2 12.2 0.00 0.00 0.00 47 1005.9
20260504171541 60 183 3.5 12.2 0.00 0.00 0.00 48 1005.9
20260504171444 60 234 4.3 17.4 0.00 0.00 0.00 47 1005.9
20260504171349 60 215 4.3 17.4 0.00 0.00 0.00 46 1005.9
20260504171311 60 196 4.3 17.4 0.00 0.00 0.00 46 1005.9
20260504171214 60 183 5.2 17.4 0.00 0.00 0.00 47 1006.0
20260504171136 59 161 4.3 17.4 0.00 0.00 0.00 46 1005.8
20260504171007 59 172 6.1 17.4 0.00 0.00 0.00 47 1005.9
20260504170921 59 244 7.8 17.4 0.00 0.00 0.00 47 1005.9
20260504170732 59 178 9.6 17.4 0.00 0.00 0.00 47 1006.0
20260504170626 59 157 7.8 16.5 0.00 0.00 0.00 46 1005.9
20260504170550 59 173 6.1 11.3 0.00 0.00 0.00 46 1005.9
20260504170504 59 133 6.1 11.3 0.00 0.00 0.00 46 1005.9
20260504170424 59 163 6.1 11.3 0.00 0.00 0.00 46 1006.0
20260504170236 59 146 5.2 13.0 0.00 0.00 0.00 46 1006.0
20260504170131 59 179 7.0 13.0 0.00 0.00 0.00 46 1006.1
20260504160445 52 153 4.3 7.0 0.00 0.00 0.00 37 1006.9
20260504160408 52 184 4.3 7.0 0.00 0.00 0.00 36 1006.9
20260504160314 52 149 5.2 7.0 0.00 0.00 0.00 37 1007.0
20260504160236 52 167 4.3 7.0 0.00 0.00 0.00 36 1007.0
20260504160105 52 190 2.6 6.1 0.00 0.00 0.00 34 1007.0
20260504151043 51 155 2.6 5.2 0.00 0.00 0.00 38 1007.3
20260504150946 51 211 2.6 5.2 0.00 0.00 0.00 40 1007.3
20260504150846 51 219 3.5 5.2 0.00 0.00 0.00 40 1007.3
20260504150809 51 229 2.6 5.2 0.00 0.00 0.00 39 1007.2
20260504150714 51 217 1.7 5.2 0.00 0.00 0.00 40 1007.2
20260504150614 51 193 1.7 2.6 0.00 0.00 0.00 40 1007.1
20260504150519 51 193 1.7 2.6 0.00 0.00 0.00 40 1007.2
20260504150323 51 205 0.9 2.6 0.00 0.00 0.00 40 1007.2
20260504150225 51 181 0.0 2.6 0.00 0.00 0.00 40 1007.3
20260504150127 51 203 0.9 2.6 0.00 0.00 0.00 40 1007.2
20260504141333 51 194 6.1 13.0 0.00 0.00 0.00 44 1006.7
20260504141136 51 173 7.0 13.0 0.00 0.00 0.00 44 1006.7
20260504141040 51 178 6.1 13.0 0.00 0.00 0.00 44 1006.6
20260504140922 51 175 7.8 13.0 0.00 0.00 0.00 44 1006.6
20260504140849 51 204 7.8 13.0 0.00 0.00 0.00 44 1006.6
20260504140723 51 176 6.1 12.2 0.00 0.00 0.00 43 1006.7
20260504140647 51 229 5.2 12.2 0.00 0.00 0.00 43 1006.7
20260504140530 51 216 4.3 12.2 0.00 0.00 0.00 43 1006.7
20260504140412 51 164 4.3 12.2 0.00 0.00 0.00 43 1006.7
20260504140346 51 167 4.3 12.2 0.00 0.00 0.00 44 1006.7
20260504140240 51 145 5.2 12.2 0.00 0.00 0.00 44 1006.7
20260504140204 51 153 6.1 12.2 0.00 0.00 0.00 44 1006.7
20260504140111 51 205 7.8 12.2 0.00 0.00 0.00 44 1006.7
20260504130821 50 174 7.0 16.5 0.00 0.00 0.00 40 1006.5
20260504130628 50 165 6.1 16.5 0.00 0.00 0.00 40 1006.4
20260504130550 50 234 7.8 16.5 0.00 0.00 0.00 40 1006.4
20260504130456 50 179 8.7 16.5 0.00 0.00 0.00 40 1006.4
20260504130417 50 150 9.6 18.2 0.00 0.00 0.00 40 1006.5
20260504130247 50 178 9.6 16.5 0.00 0.00 0.00 40 1006.4
20260504130142 50 172 8.7 16.5 0.00 0.00 0.00 39 1006.4
20260504130115 50 166 8.7 16.5 0.00 0.00 0.00 39 1006.5
20260504120238 49 175 7.0 15.6 0.00 0.00 0.00 23 1006.5
20260504120126 49 177 7.0 15.6 0.00 0.00 0.00 22 1006.5
20260504110659 47 162 7.0 13.0 0.00 0.00 0.00 1 1006.9
20260504110622 47 144 7.0 13.0 0.00 0.00 0.00 1 1006.8
20260504110505 47 157 7.0 13.0 0.00 0.00 0.00 1 1006.8
20260504110405 47 164 6.1 13.0 0.00 0.00 0.00 1 1006.8
20260504110217 47 162 6.1 13.0 0.00 0.00 0.00 1 1006.8
20260504110134 47 179 6.1 13.0 0.00 0.00 0.00 1 1006.8
20260504100534 46 180 4.3 8.7 0.00 0.00 0.00 1 1006.9
20260504100456 46 194 5.2 8.7 0.00 0.00 0.00 1 1006.9
20260504100418 46 186 5.2 8.7 0.00 0.00 0.00 1 1006.9
20260504100311 46 181 5.2 8.7 0.00 0.00 0.00 1 1007.0
20260504100120 46 116 5.2 8.7 0.00 0.00 0.00 1 1007.0
20260504090116 45 194 4.3 8.7 0.00 0.00 0.00 1 1007.3
20260504081953 45 193 4.3 8.7 0.00 0.00 0.00 1 1007.7
20260504081834 45 186 4.3 8.7 0.00 0.00 0.00 1 1007.6
20260504081729 45 209 3.5 8.7 0.00 0.00 0.00 1 1007.6
20260504081626 45 192 4.3 8.7 0.00 0.00 0.00 1 1007.6
20260504081526 45 170 3.5 9.6 0.00 0.00 0.00 1 1007.6
20260504081453 45 173 3.5 9.6 0.00 0.00 0.00 1 1007.6
20260504081335 45 203 3.5 9.6 0.00 0.00 0.00 1 1007.5
20260504081259 45 187 4.3 9.6 0.00 0.00 0.00 2 1007.5
20260504081225 45 204 5.2 11.3 0.00 0.00 0.00 2 1007.6
20260504081034 45 154 4.3 11.3 0.00 0.00 0.00 4 1007.7
20260504080928 45 207 4.3 11.3 0.00 0.00 0.00 4 1007.7
20260504080852 45 165 5.2 11.3 0.00 0.00 0.00 5 1007.7
20260504080757 45 187 5.2 11.3 0.00 0.00 0.00 5 1007.7
20260504080718 45 234 6.1 11.3 0.00 0.00 0.00 5 1007.7
20260504080525 45 164 7.0 11.3 0.00 0.00 0.00 7 1007.6
20260504080427 45 183 7.0 11.3 0.00 0.00 0.00 7 1007.6
20260504080323 45 175 7.0 11.3 0.00 0.00 0.00 7 1007.5
20260504080254 45 194 6.1 11.3 0.00 0.00 0.00 7 1007.6
20260504080136 45 186 6.1 11.3 0.00 0.00 0.00 8 1007.5